Regional Weather Roundup
Issued by NWS Sioux Falls, SD

Home | Current Version | Previous Version | Text Only | Print | Product List | Glossary On
Versions: 1 2 3 4 5 6 7 8 9 10 11 12 13 14 15 16 17 18 19 20 21 22 23 24 25 26 27 28 29 30 31 32 33 34 35 36 37 38 39 40 41 42 43 44 45 46 47 48 49 50
000
ASUS43 KFSD 271010
RWRFSD

WEATHER ROUNDUP FOR SE SOUTH DAKOTA/SW MINNESOTA/NW IOWA
NATIONAL WEATHER SERVICE SIOUX FALLS SD
500 AM CDT TUE JUN 27 2017

NOTE: "FAIR" INDICATES FEW OR NO CLOUDS BELOW 12,000 FEET WITH NO
SIGNIFICANT WEATHER AND OR OBSTRUCTIONS TO VISIBILITY.


SDZ038>040-050-052>070-271100-
SOUTHEAST SOUTH DAKOTA

CITY           SKY/WX    TMP DP  RH WIND       PRES   REMARKS
BROOKINGS      CLEAR     48  40  73 S7        30.08F
CHAMBERLAIN    CLEAR     55  45  68 SE9       30.01F
HURON          CLEAR     49  42  77 SE9       30.03F
MADISON        FAIR      46  46 100 S7        30.09S
MITCHELL       CLEAR     52  43  71 SE9       30.05F
SIOUX FALLS    PTCLDY    54  44  69 S12       30.09F
WINNER         FAIR      60  44  55 S20       29.99F
YANKTON        CLEAR     49  42  77 E5        30.08F
$$

MNZ071-072-080-081-089-090-097-098-271100-
SOUTHWEST MINNESOTA

CITY           SKY/WX    TMP DP  RH WIND       PRES   REMARKS
FAIRMONT       CLEAR     47  43  86 S3        30.13S
JACKSON        CLEAR     48  43  81 CALM      30.13S
LUVERNE        CLEAR     45  41  87 CALM      30.11F
MARSHALL       CLEAR     50  42  74 S9        30.09F
MONTEVIDEO     CLEAR     48  41  76 SW5       30.08F
PIPESTONE      CLEAR     52  39  62 S3        30.10S
REDWOOD FALLS  CLEAR     50  40  68 S5        30.10S
TRACY          CLEAR     55  42  63 S8        30.11S
WINDOM         CLEAR     45  43  93 CALM      30.12S FOG
WORTHINGTON    CLEAR     50  41  71 S8        30.12F
$$

IAZ001>003-012>014-020>022-031-032-NEZ013-014-SDZ071-271100-
NORTHWEST IOWA

CITY           SKY/WX    TMP DP  RH WIND       PRES   REMARKS
CHEROKEE       CLEAR     42  42  98 CALM      30.13F
DENISON        PTCLDY    48  45  87 CALM      30.15S
ESTHERVILLE    CLEAR     47  44  90 S6        30.12F
LE MARS        CLEAR     43  41  93 CALM      30.13S
ORANGE CITY    CLEAR     54  41  62 S3        30.12S
SHELDON        CLEAR     48  43  81 SE7       30.11S
SIOUX CITY     CLEAR     47  44  90 E7        30.12S
SPENCER        CLEAR     46  42  86 CALM      30.13S
STORM LAKE     CLEAR     50  41  71 S7        30.14S
$$

ABBREVIATIONS USED IN REMARKS
   TC - TEMPERATURE IN CELSIUS
  WCI - WIND CHILL INDEX
   HX - HEAT INDEX
  VSB - VISIBILITY





USA.gov is the U.S. government's official web portal to all federal, state and local government web resources and services.